FW3241 Weather Reports


time (UTC)temp
C
wind
direction
speed
KPH
gust
KPH
rain 1hr
cm
rain 24hr
cm
rain mn
cm
humidity
%
barometer
mb
20260509024510 10 191 0.0 3.2 0.00 0.00 0.00 65 1016.3
20260509023015 10 206 0.0 3.2 0.00 0.00 0.00 65 1016.3
20260509021514 10 200 0.0 1.6 0.00 0.00 0.00 64 1016.3
20260509020008 10 251 1.6 6.4 0.00 0.00 0.00 63 1016.5
20260509014508 10 193 0.0 3.2 0.00 0.00 0.00 63 1016.4
20260509013021 11 192 1.6 4.8 0.00 0.00 0.00 62 1016.2
20260509011507 11 200 0.0 1.6 0.00 0.00 0.00 62 1016.1
20260509010006 11 200 0.0 1.6 0.00 0.00 0.00 61 1016.3
20260509004506 11 200 0.0 3.2 0.00 0.00 0.00 60 1016.2
20260509003005 11 201 0.0 1.6 0.00 0.00 0.00 59 1016.1
20260509001507 12 201 0.0 3.2 0.00 0.00 0.00 56 1016.1
20260509000004 12 202 0.0 3.2 0.00 0.00 0.00 58 1015.9
20260508234506 12 232 0.0 9.7 0.00 0.00 0.00 56 1015.8
20260508233105 13 150 0.0 4.8 0.00 0.00 0.00 54 1015.8
20260508231501 13 192 1.6 4.8 0.00 0.00 0.00 54 1015.8
20260508230103 13 188 1.6 9.7 0.00 0.00 0.00 51 1015.8
20260508224609 14 192 0.0 3.2 0.00 0.00 0.00 45 1016.0
20260508223059 15 198 0.0 3.2 0.00 0.00 0.00 43 1015.8
20260508221604 15 197 1.6 6.4 0.00 0.00 0.00 42 1016.0
20260508220059 16 196 0.0 8.0 0.00 0.00 0.00 43 1016.1
20260508214556 16 205 0.0 6.4 0.00 0.00 0.00 39 1015.9
20260508213114 16 223 1.6 12.9 0.00 0.00 0.00 38 1016.1
20260508211554 16 190 0.0 6.4 0.00 0.00 0.00 34 1016.0
20260508210054 16 183 1.6 3.2 0.00 0.00 0.00 36 1015.9
20260508204554 16 197 0.0 4.8 0.00 0.00 0.00 40 1016.2
20260508203109 16 183 1.6 3.2 0.00 0.00 0.00 34 1016.5
20260508201551 16 200 0.0 4.8 0.00 0.00 0.00 39 1016.7
20260508200055 16 216 1.6 6.4 0.00 0.00 0.00 34 1016.6
20260508194550 16 186 0.0 8.0 0.00 0.00 0.00 35 1016.9
20260508193123 16 207 3.2 6.4 0.00 0.00 0.00 31 1017.3
20260508191551 17 248 4.8 12.9 0.00 0.00 0.00 29 1017.6
20260508190048 17 219 3.2 9.7 0.00 0.00 0.00 32 1017.5
20260508184607 17 242 4.8 11.3 0.00 0.00 0.00 30 1017.8
20260508183046 17 252 4.8 11.3 0.00 0.00 0.00 27 1017.7
20260508181546 17 244 3.2 8.0 0.00 0.00 0.00 30 1018.0
20260508180045 16 242 3.2 8.0 0.00 0.00 0.00 31 1018.0
20260508174556 16 243 4.8 8.0 0.00 0.00 0.00 34 1018.1
20260508173035 15 248 3.2 8.0 0.00 0.00 0.00 41 1018.4
20260508171531 14 253 1.6 6.4 0.00 0.00 0.00 45 1018.4
20260508170026 13 260 0.0 4.8 0.00 0.00 0.00 55 1018.7
20260508164533 12 237 0.0 6.4 0.00 0.00 0.00 61 1019.0
20260508163024 12 264 1.6 4.8 0.00 0.00 0.00 64 1019.1
20260508161534 11 264 1.6 6.4 0.00 0.00 0.00 63 1019.2
20260508160014 11 263 1.6 4.8 0.00 0.00 0.00 65 1019.3
20260508154510 10 283 3.2 4.8 0.00 0.00 0.00 68 1019.4
20260508153007 10 288 0.0 4.8 0.00 0.00 0.00 70 1019.7
20260508151506 9 291 0.0 3.2 0.00 0.00 0.00 70 1019.6
20260508150100 8 287 0.0 4.8 0.00 0.00 0.00 72 1019.6
20260508144557 8 288 0.0 4.8 0.00 0.00 0.00 74 1019.6
20260508143057 7 289 1.6 4.8 0.00 0.00 0.00 76 1019.7
20260508141551 7 304 0.0 3.2 0.00 0.00 0.00 77 1019.7
20260508140050 6 304 0.0 3.2 0.00 0.00 0.00 78 1019.7
20260508134547 6 304 0.0 4.8 0.00 0.03 0.00 77 1019.8
20260508133102 6 51 0.0 3.2 0.00 0.03 0.00 76 1019.7
20260508131544 5 51 0.0 1.6 0.00 0.03 0.00 74 1019.6
20260508130043 5 51 0.0 0.0 0.00 0.03 0.00 76 1019.4
20260508124541 5 51 0.0 0.0 0.00 0.03 0.00 72 1019.3
20260508123041 5 51 0.0 0.0 0.00 0.03 0.00 71 1019.2
20260508121538 4 51 0.0 0.0 0.00 0.03 0.00 75 1019.0
20260508120040 4 51 0.0 0.0 0.00 0.03 0.00 76 1018.9
20260508114535 3 51 0.0 0.0 0.00 0.23 0.00 77 1018.8
20260508113037 3 51 0.0 0.0 0.00 0.23 0.00 77 1018.4
20260508111530 3 51 0.0 0.0 0.00 0.23 0.00 78 1018.2
20260508110028 3 51 0.0 0.0 0.00 0.23 0.00 81 1017.9
20260508104526 3 51 0.0 0.0 0.00 0.48 0.00 81 1017.7
20260508103027 3 51 0.0 0.0 0.00 0.48 0.00 81 1017.5
20260508101525 3 51 0.0 0.0 0.00 0.48 0.00 82 1017.3
20260508100021 3 51 0.0 0.0 0.00 0.48 0.00 82 1017.2
20260508094519 3 51 0.0 0.0 0.00 0.48 0.00 81 1017.1
20260508093018 3 51 0.0 0.0 0.00 0.48 0.00 81 1016.9
20260508091528 3 51 0.0 1.6 0.00 0.48 0.00 81 1016.8
20260508090016 4 51 0.0 1.6 0.00 0.48 0.00 81 1016.8
20260508084513 4 51 0.0 1.6 0.00 0.48 0.00 82 1016.7
20260508083022 4 51 0.0 0.0 0.00 0.48 0.00 81 1016.6
20260508081510 5 51 0.0 0.0 0.00 0.48 0.00 81 1016.5
20260508080006 5 51 0.0 1.6 0.00 0.48 0.00 81 1016.5
20260508074506 5 51 0.0 1.6 0.00 0.48 0.00 81 1016.3
20260508073003 5 51 0.0 0.0 0.00 0.48 0.00 81 1016.5
20260508071503 5 51 0.0 0.0 0.00 0.48 0.00 81 1016.4
20260508064559 5 51 0.0 0.0 0.00 0.51 0.00 80 1016.3
20260508063138 6 51 0.0 1.6 0.00 0.51 0.00 80 1016.3
20260508061556 6 51 0.0 1.6 0.00 0.51 0.00 80 1016.4
20260508060057 6 51 0.0 3.2 0.00 0.51 0.00 80 1016.4
20260508054554 6 51 0.0 1.6 0.00 0.53 0.00 79 1016.1
20260508053059 6 51 1.6 3.2 0.00 0.53 0.00 78 1016.1
20260508051616 6 51 0.0 3.2 0.00 0.53 0.00 79 1016.2
20260508050051 6 51 0.0 3.2 0.00 0.53 0.00 79 1016.1
20260508044549 6 51 0.0 0.0 0.00 0.71 0.00 78 1016.0
20260508043048 6 51 0.0 0.0 0.00 0.71 0.00 78 1016.0
20260508041546 6 51 0.0 1.6 0.00 0.71 0.00 78 1015.8
20260508040043 6 51 0.0 0.0 0.00 0.71 0.00 80 1015.8
20260508034542 6 51 0.0 0.0 0.00 1.09 0.71 80 1015.9
20260508033048 6 51 0.0 1.6 0.00 1.09 0.71 81 1016.0
20260508031539 6 51 0.0 0.0 0.00 1.09 0.71 82 1015.9
20260508030044 6 51 0.0 1.6 0.00 1.09 0.71 82 1015.9